TimeAKDT,TemperatureF,Dew PointF,Humidity,Sea Level PressureIn,VisibilityMPH,Wind Direction,Wind SpeedMPH,Gust SpeedMPH,PrecipitationIn,Events,Conditions,WindDirDegrees,DateUTC
12:16 AM,48.2,46.4,93,30.08,10.0,East,4.6,-,N/A,,Overcast,80,2013-08-06 08:16:00
12:36 AM,50.0,48.2,94,30.08,10.0,East,4.6,-,N/A,,Overcast,80,2013-08-06 08:36:00
12:56 AM,48.2,46.4,93,30.08,10.0,ENE,3.5,-,N/A,,Overcast,70,2013-08-06 08:56:00
1:16 AM,48.2,46.4,93,30.08,8.0,East,3.5,-,0.01,,Overcast,90,2013-08-06 09:16:00
1:36 AM,48.2,46.4,93,30.08,7.0,Calm,Calm,-,0.01,,Overcast,0,2013-08-06 09:36:00
1:56 AM,48.2,46.4,93,30.08,3.0,East,5.8,-,0.03,,Overcast,80,2013-08-06 09:56:00
2:16 AM,48.2,46.4,93,30.08,2.5,East,5.8,-,0.01,,Overcast,100,2013-08-06 10:16:00
2:36 AM,48.2,46.4,93,30.08,2.5,Calm,Calm,-,0.02,,Mostly Cloudy,0,2013-08-06 10:36:00
2:56 AM,50.0,48.2,94,30.09,3.0,Calm,Calm,-,0.05,,Overcast,0,2013-08-06 10:56:00
3:16 AM,50.0,46.4,87,30.08,10.0,West,3.5,-,N/A,,Overcast,280,2013-08-06 11:16:00
3:36 AM,51.8,48.2,88,30.08,10.0,Calm,Calm,-,N/A,,Overcast,0,2013-08-06 11:36:00
3:56 AM,51.8,48.2,88,30.08,8.0,Calm,Calm,-,N/A,,Overcast,0,2013-08-06 11:56:00
4:16 AM,50.0,48.2,94,30.09,10.0,Calm,Calm,-,N/A,,Overcast,0,2013-08-06 12:16:00
4:36 AM,51.8,48.2,88,30.09,10.0,East,3.5,-,N/A,,Overcast,100,2013-08-06 12:36:00
4:56 AM,50.0,46.4,87,30.09,2.0,East,4.6,-,N/A,,Overcast,90,2013-08-06 12:56:00
5:16 AM,50.0,48.2,94,30.09,7.0,Calm,Calm,-,N/A,,Overcast,0,2013-08-06 13:16:00
5:36 AM,51.8,48.2,88,30.09,9.0,ESE,4.6,-,N/A,,Overcast,110,2013-08-06 13:36:00
5:56 AM,48.2,46.4,93,30.09,10.0,East,4.6,-,N/A,,Overcast,80,2013-08-06 13:56:00
6:16 AM,48.2,46.4,93,30.10,1.5,ENE,4.6,-,N/A,,Overcast,70,2013-08-06 14:16:00
6:36 AM,48.2,46.4,93,30.09,1.5,East,4.6,-,N/A,,Overcast,90,2013-08-06 14:36:00
6:56 AM,48.2,46.4,93,30.09,3.0,East,5.8,-,N/A,,Mostly Cloudy,90,2013-08-06 14:56:00
7:16 AM,50.0,46.4,87,30.09,3.0,Calm,Calm,-,N/A,,Mostly Cloudy,0,2013-08-06 15:16:00
7:36 AM,50.0,46.4,87,30.09,3.0,Calm,Calm,-,N/A,,Mostly Cloudy,0,2013-08-06 15:36:00
7:56 AM,51.8,46.4,82,30.10,5.0,Calm,Calm,-,N/A,,Mostly Cloudy,0,2013-08-06 15:56:00
8:16 AM,50.0,46.4,87,30.09,5.0,Calm,Calm,-,N/A,,Mostly Cloudy,0,2013-08-06 16:16:00
8:36 AM,51.8,48.2,88,30.10,5.0,Calm,Calm,-,N/A,,Mostly Cloudy,0,2013-08-06 16:36:00
8:56 AM,53.6,48.2,82,30.10,4.0,Calm,Calm,-,N/A,,Mostly Cloudy,0,2013-08-06 16:56:00
9:16 AM,53.6,50.0,88,30.09,4.0,Calm,Calm,-,N/A,,Mostly Cloudy,0,2013-08-06 17:16:00
9:36 AM,53.6,48.2,82,30.10,4.0,Calm,Calm,-,N/A,,Mostly Cloudy,0,2013-08-06 17:36:00
9:56 AM,53.6,50.0,88,30.10,7.0,Calm,Calm,-,0.01,,Overcast,0,2013-08-06 17:56:00
10:16 AM,53.6,51.8,94,30.11,7.0,Calm,Calm,-,N/A,,Overcast,0,2013-08-06 18:16:00
10:36 AM,53.6,50.0,88,30.10,7.0,Calm,Calm,-,N/A,,Overcast,0,2013-08-06 18:36:00
10:56 AM,55.4,51.8,88,30.10,10.0,Calm,Calm,-,N/A,,Overcast,0,2013-08-06 18:56:00
11:16 AM,55.4,51.8,88,30.10,10.0,Calm,Calm,-,N/A,,Overcast,0,2013-08-06 19:16:00
11:36 AM,-9999,-9999,N/A,-9999,10.0,North,-9999.0,-,N/A,,Overcast,0,2013-08-06 19:36:00
11:56 AM,55.4,51.8,88,30.10,10.0,Calm,Calm,-,N/A,,Mostly Cloudy,0,2013-08-06 19:56:00
12:16 PM,57.2,53.6,88,30.10,10.0,Calm,Calm,-,N/A,,Mostly Cloudy,0,2013-08-06 20:16:00
12:36 PM,57.2,53.6,88,30.10,10.0,Calm,Calm,-,N/A,,Mostly Cloudy,0,2013-08-06 20:36:00
12:56 PM,59.0,53.6,82,30.10,10.0,Calm,Calm,-,N/A,,Mostly Cloudy,0,2013-08-06 20:56:00
1:16 PM,59.0,53.6,82,30.09,10.0,Calm,Calm,-,N/A,,Mostly Cloudy,0,2013-08-06 21:16:00
1:36 PM,59.0,53.6,82,30.09,10.0,SW,3.5,-,N/A,,Mostly Cloudy,230,2013-08-06 21:36:00
1:56 PM,59.0,53.6,82,30.08,10.0,SW,3.5,-,N/A,,Mostly Cloudy,220,2013-08-06 21:56:00
2:16 PM,59.0,53.6,82,30.08,10.0,West,4.6,-,N/A,,Mostly Cloudy,280,2013-08-06 22:16:00
2:36 PM,60.8,53.6,77,30.08,10.0,SSW,3.5,-,N/A,,Mostly Cloudy,210,2013-08-06 22:36:00
2:56 PM,60.8,51.8,72,30.07,10.0,Calm,Calm,-,N/A,,Mostly Cloudy,0,2013-08-06 22:56:00
3:16 PM,60.8,53.6,77,30.07,10.0,WSW,5.8,-,N/A,,Mostly Cloudy,240,2013-08-06 23:16:00
3:36 PM,60.8,51.8,72,30.07,10.0,WSW,5.8,-,N/A,,Mostly Cloudy,250,2013-08-06 23:36:00
3:56 PM,60.8,51.8,72,30.07,10.0,SW,3.5,-,N/A,,Mostly Cloudy,220,2013-08-06 23:56:00
4:16 PM,60.8,51.8,72,30.07,10.0,WSW,5.8,-,N/A,,Mostly Cloudy,240,2013-08-07 00:16:00
4:36 PM,59.0,51.8,77,30.07,10.0,SSW,4.6,-,N/A,,Mostly Cloudy,210,2013-08-07 00:36:00
4:56 PM,57.2,51.8,82,30.07,10.0,SSW,3.5,-,N/A,,Mostly Cloudy,210,2013-08-07 00:56:00
5:16 PM,57.2,50.0,77,30.07,10.0,Calm,Calm,-,N/A,,Mostly Cloudy,0,2013-08-07 01:16:00
5:36 PM,57.2,50.0,77,30.06,10.0,South,3.5,-,N/A,,Mostly Cloudy,190,2013-08-07 01:36:00
5:56 PM,57.2,50.0,77,30.06,10.0,Calm,Calm,-,N/A,,Mostly Cloudy,0,2013-08-07 01:56:00
6:16 PM,57.2,51.8,82,30.06,10.0,Calm,Calm,-,N/A,,Mostly Cloudy,0,2013-08-07 02:16:00
6:36 PM,57.2,50.0,77,30.06,10.0,Calm,Calm,-,N/A,,Mostly Cloudy,0,2013-08-07 02:36:00
6:56 PM,57.2,50.0,77,30.05,10.0,Calm,Calm,-,N/A,,Mostly Cloudy,0,2013-08-07 02:56:00
7:16 PM,57.2,50.0,77,30.05,10.0,South,4.6,-,N/A,,Mostly Cloudy,170,2013-08-07 03:16:00
7:36 PM,57.2,51.8,82,30.05,10.0,ESE,3.5,-,N/A,,Mostly Cloudy,120,2013-08-07 03:36:00
7:56 PM,57.2,51.8,82,30.04,10.0,Calm,Calm,-,N/A,,Mostly Cloudy,0,2013-08-07 03:56:00
8:16 PM,57.2,51.8,82,30.05,10.0,Calm,Calm,-,N/A,,Mostly Cloudy,0,2013-08-07 04:16:00
8:36 PM,57.2,50.0,77,30.04,10.0,SE,3.5,-,N/A,,Mostly Cloudy,130,2013-08-07 04:36:00
8:56 PM,55.4,48.2,77,30.04,10.0,East,4.6,-,N/A,,Mostly Cloudy,80,2013-08-07 04:56:00
9:16 PM,53.6,46.4,77,30.03,10.0,East,6.9,-,N/A,,Mostly Cloudy,90,2013-08-07 05:16:00
9:36 PM,51.8,46.4,82,30.03,10.0,East,4.6,-,N/A,,Mostly Cloudy,80,2013-08-07 05:36:00
9:56 PM,51.8,44.6,76,30.03,10.0,East,6.9,-,N/A,,Mostly Cloudy,80,2013-08-07 05:56:00
10:16 PM,48.2,42.8,82,30.03,10.0,East,6.9,-,N/A,,Clear,80,2013-08-07 06:16:00
10:36 PM,48.2,44.6,87,30.03,10.0,East,6.9,-,N/A,,Clear,80,2013-08-07 06:36:00
10:56 PM,48.2,42.8,82,30.03,10.0,East,6.9,-,N/A,,Clear,80,2013-08-07 06:56:00
11:16 PM,46.4,42.8,87,30.03,10.0,East,4.6,-,N/A,,Clear,80,2013-08-07 07:16:00
11:36 PM,46.4,42.8,87,30.03,10.0,East,3.5,-,N/A,,Clear,90,2013-08-07 07:36:00
11:56 PM,46.4,42.8,87,30.02,10.0,East,5.8,-,N/A,,Clear,90,2013-08-07 07:56:00